N408RE PAFA-PAVE

Flight info

Callsign N408RE
Flight time 0h 47m
Altitude 14000
Route DCT VENAE DCT
Aircraft C408/M-SDFGRY/S

Departure

Time 2026-04-25 07:56
Airport Fairbanks International Airport (PAFA)

Arrival

Time 2026-04-25 08:43
Airport Venetie Airport (PAVE)
Time Latitude Longitude Altitude Speed Heading
2026-04-25 07:40 64.80982 -147.88162 440 ft 0 kts 326°
2026-04-25 07:53 64.80985 -147.88190 440 ft 5 kts 257°
2026-04-25 07:54 64.80935 -147.88198 438 ft 13 kts 173°
2026-04-25 07:54 64.80839 -147.88152 434 ft 9 kts 148°
2026-04-25 07:54 64.80804 -147.88026 433 ft 13 kts 115°
2026-04-25 07:54 64.80792 -147.87774 438 ft 18 kts 115°
2026-04-25 07:55 64.80778 -147.87656 433 ft 6 kts 44°
2026-04-25 07:55 64.80781 -147.87650 432 ft 0 kts 41°
2026-04-25 07:55 64.80867 -147.87489 429 ft 48 kts 38°
2026-04-25 07:55 64.81305 -147.86684 478 ft 107 kts 39°
2026-04-25 07:56 64.81947 -147.85419 777 ft 125 kts 40°
2026-04-25 07:56 64.82581 -147.84212 1448 ft 109 kts 34°
2026-04-25 07:56 64.83262 -147.83466 1951 ft 112 kts
2026-04-25 07:56 64.84021 -147.83033 2519 ft 113 kts 11°
2026-04-25 07:57 64.84821 -147.82927 3037 ft 119 kts
2026-04-25 07:57 64.85683 -147.82821 3460 ft 133 kts
2026-04-25 07:57 64.86674 -147.82697 3734 ft 150 kts
2026-04-25 07:57 64.87735 -147.82823 4009 ft 163 kts 349°
2026-04-25 07:58 64.88907 -147.83277 4010 ft 176 kts
2026-04-25 07:58 64.90127 -147.82849 4010 ft 175 kts 15°
2026-04-25 07:58 64.91281 -147.82140 4010 ft 168 kts 17°
2026-04-25 07:58 64.92428 -147.81476 4011 ft 173 kts 15°
2026-04-25 07:59 64.93607 -147.80787 4012 ft 175 kts 16°
2026-04-25 07:59 64.94801 -147.80101 4000 ft 178 kts 15°
2026-04-25 07:59 64.96000 -147.79416 4003 ft 177 kts 15°
2026-04-25 07:59 64.97200 -147.78727 4002 ft 177 kts 15°
2026-04-25 08:00 64.98398 -147.78033 4001 ft 177 kts 15°
2026-04-25 08:00 64.99598 -147.77347 4005 ft 178 kts 15°
2026-04-25 08:00 65.00801 -147.76650 4002 ft 178 kts 16°
2026-04-25 08:00 65.02001 -147.75958 4007 ft 177 kts 15°
2026-04-25 08:01 65.03205 -147.75269 4006 ft 179 kts 15°
2026-04-25 08:01 65.04409 -147.74564 4007 ft 178 kts 16°
2026-04-25 08:01 65.05613 -147.73874 4005 ft 178 kts 15°
2026-04-25 08:01 65.06815 -147.73180 4005 ft 178 kts 15°
2026-04-25 08:02 65.08016 -147.72486 4005 ft 178 kts 15°
2026-04-25 08:02 65.09204 -147.71797 4007 ft 178 kts 15°
2026-04-25 08:02 65.10408 -147.71096 4013 ft 178 kts 15°
2026-04-25 08:02 65.11609 -147.70397 4016 ft 177 kts 15°
2026-04-25 08:03 65.12808 -147.69702 4021 ft 177 kts 15°
2026-04-25 08:03 65.14011 -147.69002 4022 ft 178 kts 15°
2026-04-25 08:03 65.15213 -147.68296 4021 ft 178 kts 15°
2026-04-25 08:03 65.16412 -147.67599 4023 ft 177 kts 15°
2026-04-25 08:04 65.17607 -147.66900 4023 ft 177 kts 15°
2026-04-25 08:04 65.18804 -147.66212 4027 ft 177 kts 15°
2026-04-25 08:04 65.20004 -147.65505 4031 ft 178 kts 15°
2026-04-25 08:04 65.21204 -147.64802 4030 ft 177 kts 16°
2026-04-25 08:05 65.22386 -147.64108 4028 ft 178 kts 15°
2026-04-25 08:05 65.23588 -147.63404 4029 ft 178 kts 15°
2026-04-25 08:05 65.24790 -147.62699 4030 ft 177 kts 15°
2026-04-25 08:05 65.25992 -147.61997 4037 ft 178 kts 16°
2026-04-25 08:06 65.27192 -147.61285 4040 ft 178 kts 15°
2026-04-25 08:06 65.28416 -147.60565 4039 ft 184 kts 14°
2026-04-25 08:06 65.29669 -147.59833 4042 ft 186 kts 14°
2026-04-25 08:06 65.30926 -147.59084 4046 ft 186 kts 14°
2026-04-25 08:07 65.32185 -147.58350 4040 ft 186 kts 14°
2026-04-25 08:07 65.33447 -147.57600 4041 ft 187 kts 15°
2026-04-25 08:07 65.34710 -147.56848 4041 ft 187 kts 14°
2026-04-25 08:07 65.35974 -147.56103 4042 ft 187 kts 14°
2026-04-25 08:08 65.37236 -147.55353 4040 ft 187 kts 14°
2026-04-25 08:08 65.38497 -147.54608 4038 ft 186 kts 14°
2026-04-25 08:08 65.39746 -147.53859 4037 ft 185 kts 13°
2026-04-25 08:08 65.40994 -147.53130 4036 ft 185 kts 13°
2026-04-25 08:09 65.42245 -147.52388 4038 ft 185 kts 13°
2026-04-25 08:09 65.43487 -147.51639 4032 ft 184 kts 13°
2026-04-25 08:09 65.44725 -147.50905 4033 ft 183 kts 13°
2026-04-25 08:09 65.45965 -147.50163 4041 ft 184 kts 13°
2026-04-25 08:10 65.47209 -147.49420 4041 ft 184 kts 13°
2026-04-25 08:10 65.48454 -147.48680 4042 ft 184 kts 13°
2026-04-25 08:10 65.49698 -147.47934 4041 ft 184 kts 13°
2026-04-25 08:10 65.50929 -147.47195 4042 ft 185 kts 13°
2026-04-25 08:11 65.52178 -147.46445 4053 ft 185 kts 13°
2026-04-25 08:11 65.53425 -147.45697 4051 ft 185 kts 14°
2026-04-25 08:11 65.54676 -147.44942 4052 ft 185 kts 13°
2026-04-25 08:11 65.55921 -147.44197 4056 ft 184 kts 13°
2026-04-25 08:12 65.57137 -147.43464 4317 ft 171 kts 13°
2026-04-25 08:12 65.58232 -147.42807 4840 ft 158 kts 13°
2026-04-25 08:12 65.59308 -147.42160 5156 ft 161 kts 13°
2026-04-25 08:12 65.60400 -147.41507 5504 ft 163 kts 12°
2026-04-25 08:13 65.61505 -147.40824 5770 ft 165 kts 13°
2026-04-25 08:13 65.62629 -147.40159 6078 ft 167 kts 13°
2026-04-25 08:13 65.63761 -147.39470 6396 ft 169 kts 13°
2026-04-25 08:14 65.66064 -147.38074 6984 ft 172 kts 13°
2026-04-25 08:14 65.67229 -147.37365 7292 ft 173 kts 13°
2026-04-25 08:14 65.68399 -147.36657 7596 ft 174 kts 14°
2026-04-25 08:14 65.69573 -147.35942 7900 ft 174 kts 14°
2026-04-25 08:15 65.70766 -147.35214 7991 ft 186 kts 14°
2026-04-25 08:15 65.72047 -147.34432 7982 ft 192 kts 13°
2026-04-25 08:15 65.73358 -147.33628 7999 ft 196 kts 13°
2026-04-25 08:15 65.74683 -147.32830 8011 ft 197 kts 13°
2026-04-25 08:16 65.76021 -147.32010 8007 ft 198 kts 13°
2026-04-25 08:16 65.77350 -147.31194 8008 ft 197 kts 13°
2026-04-25 08:16 65.78682 -147.30381 8014 ft 197 kts 13°
2026-04-25 08:16 65.80004 -147.29565 8019 ft 195 kts 14°
2026-04-25 08:17 65.81316 -147.28763 8017 ft 194 kts 13°
2026-04-25 08:17 65.82630 -147.27962 8022 ft 195 kts 13°
2026-04-25 08:17 65.83957 -147.27140 8016 ft 197 kts 13°
2026-04-25 08:17 65.85270 -147.26331 8020 ft 197 kts 13°
2026-04-25 08:18 65.86605 -147.25508 8022 ft 199 kts 13°
2026-04-25 08:18 65.87953 -147.24676 8025 ft 200 kts 13°
2026-04-25 08:18 65.89305 -147.23841 8022 ft 200 kts 13°
2026-04-25 08:18 65.90646 -147.23009 8024 ft 198 kts 13°
2026-04-25 08:19 65.91983 -147.22192 8030 ft 199 kts 13°
2026-04-25 08:19 65.93322 -147.21357 8030 ft 198 kts 14°
2026-04-25 08:19 65.94663 -147.20524 8027 ft 198 kts 13°
2026-04-25 08:19 65.95997 -147.19697 8023 ft 197 kts 13°
2026-04-25 08:20 65.97328 -147.18869 8026 ft 197 kts 13°
2026-04-25 08:20 65.98643 -147.18050 7959 ft 200 kts 13°
2026-04-25 08:20 66.00009 -147.17200 7784 ft 204 kts 13°
2026-04-25 08:20 66.01396 -147.16334 7610 ft 206 kts 13°
2026-04-25 08:21 66.02783 -147.15469 7437 ft 206 kts 13°
2026-04-25 08:21 66.04167 -147.14603 7263 ft 205 kts 13°
2026-04-25 08:21 66.05553 -147.13735 7085 ft 205 kts 13°
2026-04-25 08:21 66.06916 -147.12881 6912 ft 204 kts 13°
2026-04-25 08:22 66.08305 -147.12010 6736 ft 203 kts 13°
2026-04-25 08:22 66.09675 -147.11151 6562 ft 203 kts 13°
2026-04-25 08:22 66.11025 -147.10301 6382 ft 203 kts 13°
2026-04-25 08:22 66.12395 -147.09441 6197 ft 203 kts 13°
2026-04-25 08:23 66.13758 -147.08583 6010 ft 202 kts 13°
2026-04-25 08:23 66.15118 -147.07724 5827 ft 201 kts 13°
2026-04-25 08:23 66.16471 -147.06870 5641 ft 201 kts 13°
2026-04-25 08:23 66.17368 -147.06303 5532 ft 200 kts 14°
2026-04-25 08:24 66.18717 -147.05449 5351 ft 200 kts 14°
2026-04-25 08:24 66.20052 -147.04596 5183 ft 197 kts 15°
2026-04-25 08:24 66.21367 -147.03774 5005 ft 189 kts 15°
2026-04-25 08:24 66.22616 -147.02982 4808 ft 184 kts 16°
2026-04-25 08:25 66.23852 -147.02192 4616 ft 182 kts 16°
2026-04-25 08:25 66.25079 -147.01409 4428 ft 182 kts 16°
2026-04-25 08:25 66.26299 -147.00639 4243 ft 180 kts 16°
2026-04-25 08:25 66.27510 -146.99861 4061 ft 179 kts 17°
2026-04-25 08:26 66.28702 -146.99106 4002 ft 174 kts 16°
2026-04-25 08:26 66.29861 -146.98358 3994 ft 171 kts 17°
2026-04-25 08:26 66.31013 -146.97647 3990 ft 170 kts 16°
2026-04-25 08:26 66.32148 -146.96911 3995 ft 173 kts 17°
2026-04-25 08:27 66.33313 -146.96155 3995 ft 173 kts 17°
2026-04-25 08:27 66.34477 -146.95395 3997 ft 173 kts 17°
2026-04-25 08:27 66.35645 -146.94668 3994 ft 173 kts 16°
2026-04-25 08:27 66.36826 -146.93909 4001 ft 177 kts 17°
2026-04-25 08:28 66.38025 -146.93137 3999 ft 179 kts 16°
2026-04-25 08:28 66.39228 -146.92362 4002 ft 179 kts 17°
2026-04-25 08:28 66.40434 -146.91588 4005 ft 179 kts 16°
2026-04-25 08:28 66.41645 -146.90815 4004 ft 180 kts 16°
2026-04-25 08:29 66.42857 -146.90025 4007 ft 180 kts 17°
2026-04-25 08:29 66.44071 -146.89236 4009 ft 180 kts 16°
2026-04-25 08:29 66.45284 -146.88462 4009 ft 180 kts 16°
2026-04-25 08:29 66.46493 -146.87672 4011 ft 180 kts 16°
2026-04-25 08:30 66.47703 -146.86900 4010 ft 179 kts 16°
2026-04-25 08:30 66.48907 -146.86100 4014 ft 176 kts 19°
2026-04-25 08:30 66.50100 -146.85302 4015 ft 179 kts 14°
2026-04-25 08:30 66.51319 -146.84565 4009 ft 180 kts 17°
2026-04-25 08:31 66.52510 -146.83760 4009 ft 179 kts 17°
2026-04-25 08:31 66.53717 -146.82992 4006 ft 179 kts 16°
2026-04-25 08:31 66.54926 -146.82193 4008 ft 180 kts 17°
2026-04-25 08:31 66.56141 -146.81405 4012 ft 181 kts 17°
2026-04-25 08:32 66.57362 -146.80614 4015 ft 180 kts 16°
2026-04-25 08:32 66.58571 -146.79808 4015 ft 180 kts 16°
2026-04-25 08:32 66.59785 -146.79025 4013 ft 180 kts 17°
2026-04-25 08:32 66.61001 -146.78224 4015 ft 181 kts 17°
2026-04-25 08:33 66.62219 -146.77423 4019 ft 180 kts 17°
2026-04-25 08:33 66.63432 -146.76627 4018 ft 180 kts 16°
2026-04-25 08:33 66.64642 -146.75840 4018 ft 180 kts 17°
2026-04-25 08:33 66.65857 -146.75040 4017 ft 181 kts 17°
2026-04-25 08:34 66.67077 -146.74234 4016 ft 181 kts 17°
2026-04-25 08:34 66.68293 -146.73431 4015 ft 180 kts 16°
2026-04-25 08:34 66.69507 -146.72630 4015 ft 181 kts 17°
2026-04-25 08:34 66.70722 -146.71825 4011 ft 180 kts 15°
2026-04-25 08:35 66.71934 -146.71019 4011 ft 180 kts 16°
2026-04-25 08:35 66.73152 -146.70230 4011 ft 181 kts 15°
2026-04-25 08:35 66.74367 -146.69419 4014 ft 180 kts 15°
2026-04-25 08:35 66.75567 -146.68623 4012 ft 180 kts 16°
2026-04-25 08:36 66.76784 -146.67814 4016 ft 181 kts 15°
2026-04-25 08:36 66.77995 -146.66998 4015 ft 180 kts 16°
2026-04-25 08:36 66.79209 -146.66207 4013 ft 180 kts 15°
2026-04-25 08:36 66.80427 -146.65395 4013 ft 181 kts 15°
2026-04-25 08:37 66.81647 -146.64581 4014 ft 181 kts 15°
2026-04-25 08:37 66.82850 -146.63661 4006 ft 180 kts 26°
2026-04-25 08:37 66.83932 -146.62077 4010 ft 179 kts 31°
2026-04-25 08:37 66.85009 -146.60549 4012 ft 180 kts 30°
2026-04-25 08:38 66.86104 -146.58987 4013 ft 181 kts 31°
2026-04-25 08:38 66.87120 -146.57390 3594 ft 167 kts 36°
2026-04-25 08:38 66.88084 -146.56007 3343 ft 156 kts 27°
2026-04-25 08:38 66.89050 -146.54844 3105 ft 151 kts 27°
2026-04-25 08:39 66.89994 -146.53826 3019 ft 143 kts 24°
2026-04-25 08:39 66.90913 -146.52846 2915 ft 144 kts 23°
2026-04-25 08:39 66.91850 -146.51932 2822 ft 142 kts 25°
2026-04-25 08:39 66.92715 -146.50761 2702 ft 141 kts 27°
2026-04-25 08:40 66.93674 -146.50116 2505 ft 145 kts
2026-04-25 08:40 66.94666 -146.49919 2400 ft 141 kts
2026-04-25 08:40 66.95629 -146.49559 2273 ft 140 kts 18°
2026-04-25 08:40 66.96564 -146.48846 2083 ft 141 kts 15°
2026-04-25 08:41 66.97469 -146.48265 1971 ft 120 kts 17°
2026-04-25 08:41 66.98228 -146.47568 1679 ft 115 kts 32°
2026-04-25 08:41 66.98914 -146.46182 1523 ft 134 kts 51°
2026-04-25 08:41 66.99299 -146.44293 1258 ft 115 kts 69°
2026-04-25 08:42 66.99621 -146.42492 1125 ft 105 kts 60°
2026-04-25 08:42 66.99979 -146.40865 961 ft 107 kts 59°
2026-04-25 08:42 67.00332 -146.39239 759 ft 100 kts 61°
2026-04-25 08:42 67.00618 -146.37819 615 ft 86 kts 62°
2026-04-25 08:43 67.00894 -146.36495 580 ft 75 kts 60°
2026-04-25 08:43 67.01009 -146.36002 580 ft 0 kts 85°
2026-04-25 08:43 67.00984 -146.36013 580 ft 12 kts 236°
2026-04-25 08:43 67.00902 -146.36463 580 ft 35 kts 243°
2026-04-25 08:44 67.00781 -146.37058 578 ft 40 kts 246°
2026-04-25 08:44 67.00663 -146.37625 580 ft 29 kts 243°
2026-04-25 08:44 67.00626 -146.37886 580 ft 8 kts 327°
2026-04-25 08:44 67.00749 -146.37973 579 ft 17 kts 11°
2026-04-25 08:45 67.00791 -146.37836 580 ft 8 kts 52°
2026-04-25 08:45 67.00821 -146.37845 580 ft 4 kts 336°
2026-04-25 08:45 67.00823 -146.37847 580 ft 0 kts 337°